Location: Beau Repaire
(50.6144°N, 4.0551°E)
Time: 11:43:36
(UTC+00:00)

Cosmos 1634 Rocket - Pass Details

Date: 15 May 2026
Orbit: 960 x 990 km, 82.9° (Epoch: 6 June)

Event Time Altitude Azimuth Distance (km) Brightness Sun altitude
Exits shadow 22:22:33 28° 181° (S) 1,723 4.8 -18.3°
Maximum altitude 22:26:01 81° 97° (E) 983 3.9 -18.5°
Drops below altitude 10° 22:32:15 10° 11° (NNE) 2,723 7.3 -18.8°
Sets 22:34:47 0° 11° (N) 3,678 8.1 -18.9°
